GFSFLT1_250_rhum_099.txt.gz
RH
90 100 100 95 91 74 72 64 59 55 48 47 47 55 58 62 89 50 36 33 54 50 76 82 85 79 100 99 83 64 46 36
100 100 96 95 83 65 61 56 49 43 38 35 36 42 32 35 38 22 29 29 48 56 89 83 94 90 100 85 88 62 51 38
65 70 78 81 68 56 53 50 40 30 21 22 20 20 22 25 19 16 26 33 58 61 89 98 98 100 97 74 58 68 55 41
63 60 60 64 63 54 52 37 19 16 18 15 12 12 11 12 30 38 30 53 56 69 95 69 100 93 90 72 66 63 48 37
62 61 59 53 43 31 29 20 18 16 12 10 10 10 10 12 25 36 47 68 84 93 100 100 100 88 66 70 73 62 47 46
56 44 34 33 27 18 14 17 15 11 10 10 10 10 12 12 18 35 45 81 93 100 100 99 100 100 79 51 63 51 59 66
39 35 24 26 17 14 13 13 11 11 11 10 11 12 13 13 19 32 52 88 100 100 100 100 100 100 80 61 61 54 85 100
35 26 21 16 13 13 12 12 13 14 13 13 14 15 14 15 17 38 67 84 100 100 100 100 100 94 84 71 62 76 100 90
30 25 25 16 13 13 12 17 17 16 16 18 23 40 21 22 27 53 69 99 100 100 100 100 95 100 84 73 75 88 80 74
25 23 20 16 15 15 21 24 19 18 46 62 69 71 58 44 47 86 88 100 100 100 100 100 100 96 85 75 96 69 78 47
27 27 19 18 18 30 31 30 24 42 86 86 87 91 95 89 97 99 100 100 100 100 100 100 84 62 46 51 61 71 54 44
29 25 21 20 27 43 36 36 77 90 96 96 100 100 96 100 100 100 100 98 100 98 100 78 62 35 30 31 72 43 42 84
29 23 22 28 41 58 47 70 94 96 100 100 100 97 100 98 100 86 100 100 100 100 96 72 40 21 29 41 43 55 63 67
25 21 27 51 80 74 65 100 100 100 100 100 100 100 100 100 100 100 100 100 84 100 68 44 31 32 44 57 74 92 90 67
25 22 44 89 97 87 92 100 100 100 100 100 100 100 100 100 100 100 95 74 74 89 75 67 49 64 82 94 100 100 89 71
23 24 59 94 100 90 100 100 100 100 100 100 100 100 100 100 100 100 72 43 72 100 100 49 61 86 100 100 100 100 72 38
21 31 82 97 100 93 100 100 100 100 100 100 100 100 100 100 98 80 78 66 58 76 97 54 42 51 99 100 98 100 65 40
23 43 96 98 100 100 100 100 100 100 100 100 100 100 100 100 71 69 100 100 95 75 92 67 57 48 46 62 94 100 91 43
24 54 95 100 100 100 100 100 100 100 100 100 93 92 89 60 44 43 100 100 100 100 100 97 79 70 37 44 61 94 100 90

GFSFLT1_250_rhum_105.txt.gz
RH
45 42 40 43 50 51 54 53 54 58 62 59 72 80 89 91 100 100 100 97 95 99 100 93 82 54 57 63 51 65 86 88
47 43 40 38 41 43 46 49 45 47 50 58 59 68 74 66 72 84 82 96 100 88 85 71 68 51 62 55 65 66 88 83
52 48 43 39 39 47 50 45 51 55 67 86 86 84 78 83 100 100 100 98 84 67 54 47 33 40 41 37 67 58 71 83
65 56 52 44 45 44 41 47 66 79 75 70 65 68 82 90 85 66 66 64 56 59 46 30 28 25 25 29 47 52 55 68
46 55 65 64 48 41 39 45 61 65 57 46 44 52 58 46 40 36 37 25 29 36 30 26 19 16 26 31 46 43 51 59
41 39 51 52 50 46 42 46 57 43 48 48 46 47 41 30 23 19 23 23 16 14 13 14 13 20 27 36 57 47 51 68
42 42 50 49 54 51 49 48 44 38 39 38 38 32 20 14 12 12 12 19 13 12 11 11 16 24 38 66 100 65 59 68
42 43 48 55 53 51 53 51 44 39 42 42 35 22 14 11 11 11 24 46 16 10 12 14 50 27 58 92 93 100 80 66
45 47 48 52 54 57 57 49 45 37 41 37 25 15 14 12 12 10 21 43 15 11 31 32 43 77 100 65 78 100 97 100
49 45 48 57 59 64 58 54 47 36 40 32 20 16 14 12 15 12 38 43 23 29 36 28 80 100 79 80 90 93 100 100
49 57 63 62 64 63 59 48 42 40 36 23 20 16 17 56 76 55 52 48 24 28 45 45 100 100 100 100 100 100 100 100
54 62 61 60 61 66 61 43 41 42 26 24 19 27 35 90 81 75 64 57 30 56 57 81 100 100 100 100 99 93 83 87
83 76 63 68 72 62 50 43 42 32 28 21 38 53 55 89 98 81 73 43 45 64 71 100 100 100 93 98 100 99 99 100
83 85 74 62 64 50 46 41 36 29 26 39 78 87 87 94 100 99 97 69 66 79 88 100 100 99 75 100 100 100 100 100
86 80 69 56 51 41 30 44 31 33 37 77 100 100 100 94 100 100 100 100 94 89 100 100 100 100 95 100 100 100 100 100
87 67 58 53 43 30 29 38 32 46 82 100 100 100 100 100 100 100 100 100 100 100 100 100 100 100 100 98 98 100 82 58
79 76 72 58 44 33 28 35 38 77 100 100 100 100 100 100 100 100 100 100 100 100 100 100 100 100 99 100 86 68 44 35
80 64 45 34 24 21 32 33 60 88 100 100 100 100 100 100 100 100 100 100 100 100 100 100 100 100 100 100 93 60 43 28
38 32 31 26 25 22 25 32 68 92 100 100 100 100 100 100 100 100 100 100 100 100 100 100 100 100 100 100 81 50 33 37

GFSFLT1_250_rhum_111.txt.gz
RH
44 56 91 88 94 80 76 68 54 56 49 42 50 50 39 41 42 40 36 48 56 53 69 75 74 65 70 62 64 51 39 52
38 50 53 87 90 75 74 75 58 62 53 50 49 51 47 48 48 47 42 41 40 42 42 41 48 38 38 34 42 60 55 85
46 44 53 46 68 64 68 80 73 66 65 63 63 54 50 45 41 38 37 36 34 33 38 40 36 38 51 63 62 77 100 100
29 38 44 47 55 56 71 78 75 70 64 64 64 60 56 51 45 41 40 40 36 35 37 42 43 38 68 68 67 99 100 100
13 24 51 57 40 38 41 43 68 71 65 65 65 64 62 55 52 45 40 38 38 36 32 27 50 63 62 73 71 100 100 100
15 29 34 29 36 41 37 43 47 63 75 70 60 57 56 58 51 42 37 38 35 33 30 28 30 55 70 69 81 90 100 100
13 20 24 24 31 32 33 37 39 41 49 56 51 51 49 51 48 44 37 38 35 31 28 27 32 29 68 82 98 86 57 68
15 18 18 23 28 29 29 31 42 45 41 54 46 37 40 44 45 43 39 35 31 34 29 28 27 21 29 91 100 100 100 100
38 41 35 26 29 29 36 54 58 61 57 53 53 42 37 38 44 40 34 31 29 34 32 26 17 22 54 77 79 88 95 100
86 62 94 76 72 60 61 61 66 65 58 54 46 39 43 47 44 42 37 28 29 35 29 18 14 97 81 61 89 100 100 100
97 99 100 100 100 89 78 64 50 46 56 54 54 63 44 47 50 38 36 29 32 34 23 15 17 100 96 85 86 97 100 100
81 98 100 89 87 78 70 59 56 67 84 89 93 78 62 56 49 38 29 35 31 23 66 30 65 100 100 93 98 93 84 77
90 89 91 78 81 85 91 93 94 96 88 89 86 90 73 51 35 33 31 34 26 28 99 88 100 100 100 100 98 64 32 94
100 99 94 98 92 75 77 78 80 73 75 99 89 75 63 47 40 40 36 29 20 76 98 100 90 100 97 86 80 81 67 92
91 98 93 90 93 94 85 100 98 98 100 100 100 80 58 61 55 39 33 23 22 97 92 95 94 74 100 89 100 98 100 100
85 85 84 87 100 100 100 100 100 100 100 100 98 85 60 67 60 41 30 25 61 100 99 87 93 100 100 100 100 100 100 100
81 74 71 72 89 100 96 94 89 89 81 78 62 60 58 89 59 43 29 45 99 100 99 69 100 100 100 100 100 100 100 100
90 86 82 76 81 92 73 69 65 69 78 61 52 62 67 91 60 38 46 96 100 90 100 77 98 100 100 100 100 100 100 100
92 92 90 83 75 66 63 65 69 70 69 62 59 63 75 80 46 36 90 100 100 100 100 92 85 92 100 99 100 100 100 100

GFSFLT1_250_rhum_114.txt.gz
RH
100 99 80 86 67 66 57 68 90 83 86 71 81 87 62 56 44 45 41 41 42 50 30 36 47 67 74 97 100 99 86 94
59 85 100 100 93 89 74 63 67 78 70 77 82 80 66 64 60 53 41 47 44 42 33 41 31 24 47 52 58 82 78 100
20 32 64 88 100 99 89 74 63 64 76 83 74 71 60 54 69 63 53 45 44 45 46 41 40 37 34 44 65 72 74 70
13 17 23 41 60 72 96 81 67 59 56 55 56 53 54 51 56 65 63 52 51 48 48 46 41 34 30 28 35 62 86 94
10 11 11 16 23 34 56 95 65 66 57 54 55 54 53 52 53 56 69 62 57 50 50 50 43 37 30 26 22 57 84 100
8 9 12 12 14 19 25 33 42 51 61 63 60 61 56 60 70 68 69 67 65 58 48 50 46 44 39 30 26 26 61 83
10 10 10 14 17 15 17 26 37 47 53 64 70 72 64 52 62 64 63 63 60 56 51 44 45 41 39 34 27 25 27 37
8 10 10 12 14 15 16 18 21 27 35 52 57 56 49 48 56 50 54 60 47 50 46 41 40 35 28 31 26 26 28 25
12 13 13 12 14 11 14 16 20 21 24 29 33 34 42 47 51 46 46 52 49 46 41 36 36 33 25 27 26 27 31 19
67 67 46 66 56 25 30 28 35 37 39 29 39 40 44 51 48 44 51 41 47 45 39 36 40 33 30 29 27 22 17 15
84 94 84 82 91 91 88 79 79 70 69 52 47 68 48 52 49 36 61 52 41 47 55 56 32 32 33 31 25 15 14 21
100 100 81 100 95 100 100 100 95 89 100 87 94 70 63 56 60 65 74 84 73 64 55 42 33 31 36 32 28 20 68 86
100 64 82 91 82 96 100 100 100 100 100 96 92 92 86 87 74 74 80 73 65 59 49 35 30 32 39 76 73 100 100 100
96 95 70 86 68 91 100 99 100 100 100 100 98 92 95 90 82 69 60 62 57 52 44 34 35 38 100 100 94 100 100 100
86 90 71 95 100 100 89 86 95 99 87 97 100 100 89 90 80 68 66 77 64 47 50 40 34 79 100 100 100 100 93 83
100 89 88 76 99 90 80 83 74 79 81 79 87 86 98 95 99 99 90 72 58 49 38 42 34 100 100 100 100 93 95 99
99 91 76 79 84 90 91 87 81 76 72 74 85 94 100 100 87 77 65 52 50 42 46 32 92 100 100 100 100 100 100 100
82 76 69 54 56 77 74 71 73 80 76 84 92 100 99 94 84 61 44 51 47 50 43 31 100 100 100 100 100 79 89 79
96 94 88 78 64 57 63 64 58 58 58 59 60 60 53 53 54 56 57 81 60 52 32 66 100 100 100 100 94 95 72 100

GFSFLT1_250_rhum_117.txt.gz
RH
47 43 42 45 43 42 30 74 100 100 91 75 78 70 100 100 100 99 80 53 45 49 56 70 78 64 65 99 100 90 74 100
37 31 28 28 30 33 41 44 89 100 100 99 81 75 70 82 87 90 89 70 58 41 37 49 68 70 60 77 71 86 78 100
24 19 17 16 16 18 22 36 42 93 100 100 88 77 76 81 96 90 90 91 76 60 39 39 39 33 38 50 62 64 69 79
15 11 10 9 10 11 13 18 34 38 55 78 72 82 77 73 72 73 85 90 89 72 54 46 40 40 35 32 35 31 26 45
10 8 8 9 10 12 12 15 18 25 34 32 44 60 64 62 77 68 61 60 61 60 46 48 50 40 36 36 34 34 32 29
9 9 8 9 10 11 12 14 18 26 32 31 34 45 49 56 67 73 62 56 51 48 47 48 56 63 51 46 42 34 34 26
11 9 8 9 10 11 15 13 17 20 24 27 33 42 49 54 70 74 64 72 60 52 56 57 55 64 66 54 54 41 42 31
12 9 8 8 10 13 16 16 16 17 22 24 31 49 59 88 63 86 72 70 74 77 68 62 68 58 57 49 54 51 42 35
11 9 10 11 14 16 16 13 14 15 16 21 28 34 41 57 64 86 69 72 67 66 75 64 75 59 48 54 46 45 39 35
14 13 23 16 34 26 20 23 26 27 20 18 22 28 31 36 42 51 58 52 56 57 58 66 60 54 50 46 39 35 34 37
37 73 74 67 100 84 67 54 67 52 33 30 25 25 28 33 34 31 31 37 40 42 49 44 40 42 44 39 33 38 28 35
27 29 65 90 87 100 100 86 81 74 68 48 49 81 75 69 73 48 43 50 46 51 51 50 44 56 48 41 44 46 36 39
43 68 56 100 100 100 93 99 94 95 94 95 88 78 76 78 100 75 79 83 62 70 80 75 74 62 66 60 50 45 48 37
85 100 87 100 100 100 95 85 73 99 100 100 100 100 100 97 100 95 100 100 89 98 84 85 81 85 79 69 56 36 39 37
100 100 100 100 97 92 98 98 86 100 100 100 100 100 100 100 100 100 100 100 91 94 99 95 90 78 79 60 44 36 40 37
96 100 99 100 90 84 90 72 71 84 96 100 100 100 100 96 100 100 96 100 97 93 90 89 85 67 56 48 34 42 36 72
90 94 97 99 88 86 83 80 74 84 68 68 74 75 82 91 91 97 96 93 92 91 82 82 75 52 44 42 37 41 75 100
100 82 78 76 79 70 69 66 62 61 64 82 84 70 78 70 72 77 75 82 82 82 68 56 56 49 59 43 44 68 100 100
99 99 97 91 92 98 100 95 87 76 60 54 57 63 68 66 64 57 62 63 56 57 62 64 64 48 44 49 52 100 100 100

GFSFLT1_250_rhum_120.txt.gz
RH
54 49 45 43 43 48 45 43 35 36 41 41 37 36 38 60 75 74 98 94 93 92 73 68 62 72 70 71 90 100 100 97
51 45 39 36 37 39 43 43 39 34 27 30 29 33 50 55 66 76 76 76 72 82 98 74 71 68 54 42 52 90 100 100
49 44 35 26 25 22 26 25 25 24 22 21 26 30 39 62 49 88 91 82 79 65 96 99 74 59 56 46 39 38 70 96
42 31 23 22 16 15 14 12 13 15 15 15 19 27 25 52 88 63 80 92 93 79 67 64 77 67 59 44 36 32 30 26
36 29 23 16 15 12 10 10 11 12 12 13 14 18 27 25 54 80 73 87 94 80 81 73 66 78 90 75 62 43 37 38
34 24 15 13 11 10 9 9 11 15 13 13 13 17 18 21 32 62 80 72 77 86 83 83 78 73 71 77 84 67 42 35
25 17 14 13 11 10 10 10 12 15 16 16 18 19 16 20 20 38 61 75 84 86 87 78 79 77 76 71 65 61 50 42
18 16 16 12 12 11 11 11 12 14 16 18 24 21 22 18 18 22 34 45 62 79 87 83 82 81 80 75 62 54 46 44
19 19 19 15 12 12 13 19 21 19 24 21 25 26 27 24 23 23 26 38 54 70 68 70 93 86 84 82 73 71 63 47
24 25 23 15 13 13 23 62 70 49 51 38 30 31 41 36 27 27 27 30 41 55 65 65 82 71 68 79 77 68 77 85
30 30 22 17 21 19 21 54 59 78 59 46 46 48 34 38 31 28 28 29 30 34 48 66 82 83 89 95 96 86 71 75
28 27 18 27 55 38 23 33 72 71 74 69 76 61 41 34 37 38 41 39 32 35 38 45 65 76 68 66 82 81 80 77
22 21 18 39 70 67 50 48 67 88 84 54 76 68 65 66 61 67 66 71 65 59 48 41 40 46 52 56 57 57 50 47
21 22 23 32 80 83 84 56 86 98 95 92 99 93 82 81 94 100 87 98 100 84 75 66 60 52 61 60 52 54 44 47
20 21 48 46 64 61 67 68 80 100 100 92 89 93 100 99 100 100 96 75 79 90 100 91 82 84 82 74 75 72 61 58
19 20 44 61 54 57 53 53 88 82 81 62 60 68 99 100 100 100 96 96 99 82 82 98 94 95 100 91 79 74 83 75
18 26 37 53 65 62 54 70 81 80 75 81 68 64 68 75 88 97 87 86 82 100 99 90 86 96 97 92 87 86 87 79
41 47 50 56 69 70 65 70 71 68 70 76 74 78 77 76 75 81 90 87 88 92 91 100 97 88 85 94 94 81 75 66
74 72 71 70 81 80 92 93 85 83 80 84 91 87 84 74 66 68 68 76 79 76 85 99 99 99 98 97 87 80 70 61